Weather Roundup
Issued by NWS Springfield, MO

Home | Current Version | Previous Version | Text Only | Print | Product List | Glossary On
Versions: 1 2 3 4 5 6 7 8 9 10 11 12 13 14 15 16 17 18 19 20 21 22 23 24 25 26 27 28 29 30 31 32 33 34 35 36 37 38 39 40 41 42 43 44 45 46 47 48 49 50
000
NZUS99 KSGF 051707
HRRSGF

HOURLY WEATHER
NATIONAL WEATHER SERVICE SPRINGFIELD MO
1200 PM CDT TUE MAY 05 2015

......SGF CWA......

CITY           SKY/WX    TMP DP  RH WIND       PRES   REMARKS
SPRINGFIELD    PTSUNNY   74  60  61 S12       30.16S
JOPLIN         PTSUNNY   74  61  63 S14       30.13S
WEST PLAINS    MOSUNNY   75  58  55 S13G18    30.22F
ROLLA          PTSUNNY   78  58  49 SE9G20    30.17F
OSAGE BEACH    MOSUNNY   79  57  47 S10       30.16S
BRANSON        PTSUNNY   75  61  60 SE14G23   30.19S

......SURROUNDING SGF CWA......

CITY           SKY/WX    TMP DP  RH WIND       PRES   REMARKS
CHANUTE        PTSUNNY   76  59  55 S14       30.09F
PARSONS        PTSUNNY   76  59  55 S13G22    30.11S
COFFEYVILLE    CLOUDY    76  60  57 S12G21    30.09S
EMPORIA        CLOUDY    74  57  55 S17G24    30.08S
GROVE OK       PTSUNNY   79  61  53 S9        30.12F
ROGERS AR      PTSUNNY   75  60  59 S15       30.16S
SILOAM SPRINGS PTSUNNY   75  61  60 S18       30.15F
HARRISON AR    MOSUNNY   75  59  57 S15       30.19S
NEAR YELLVILLE CLOUDY    79  55  44 S9        30.17S

......KANSAS AND MISSOURI......

CITY           SKY/WX    TMP DP  RH WIND       PRES   REMARKS
KANSAS CTY INT PTSUNNY   75  60  59 S10       30.11F
DOWNTOWN KC    MOSUNNY   77  59  53 S13       30.10F
COLUMBIA       MOSUNNY   80  57  45 SW16      30.16F
SEDALIA        SUNNY     80  56  43 SW12      30.15F
ST JOSEPH      PTSUNNY   75  63  66 SW10      30.11S
ST LOUIS       MOSUNNY   84  55  36 W10       30.18F
SPIRIT OF STL  MOSUNNY   81  57  43 SW7G16    30.16F
KIRKSVILLE     MOSUNNY   77  62  59 SW10      30.15F
WICHITA        PTSUNNY   76  54  46 S22G32    30.03F
TOPEKA         PTSUNNY   76  59  55 S10       30.09F
OLATHE         MOSUNNY   76  59  55 S16G22    30.11F

......TENNESSEE......

CITY           SKY/WX    TMP DP  RH WIND       PRES   REMARKS
MEMPHIS        MOSUNNY   83  57  41 SE12G18   30.23F
NASHVILLE      MOSUNNY   83  53  35 S9        30.29F

......ARKANSAS.......

CITY           SKY/WX    TMP DP  RH WIND       PRES   REMARKS
FAYETTEVILLE   PTSUNNY   74  63  68 SE16G30   30.15S
FT SMITH       PTSUNNY   80  58  46 SE13G22   30.11F
LITTLE ROCK    PTSUNNY   82  55  39 SE13      30.18F

......OKLAHOMA.......

CITY           SKY/WX    TMP DP  RH WIND       PRES   REMARKS
TULSA          CLOUDY    75  62  64 S16G24    30.06F
PONCA CITY     CLOUDY    75  57  53 S17G31    30.02F
MCALESTER      PTSUNNY   76  62  62 S13G26    30.08F
OKLAHOMA CITY  PTSUNNY   72  57  60 SE22G29   30.03S

......IOWA............

CITY           SKY/WX    TMP DP  RH WIND       PRES   REMARKS
DES MOINES     CLOUDY    73  61  65 S12       30.12R
QUAD CITIES    CLOUDY    66  60  81 E6        30.17S HAZE

......ILLINOIS........

CITY           SKY/WX    TMP DP  RH WIND       PRES   REMARKS
QUINCY         SUNNY     77  60  55 SW9       30.16S
CHICAGO        FOG       50  49  96 N10       30.24S VSB 1/2




USA.gov is the U.S. government's official web portal to all federal, state and local government web resources and services.